Terminal Aerodrome Forecast
Issued by NWS Memphis, TN

Home | Current Version | Previous Version | Text Only | Print | Product List | Glossary On
Versions: 1 2 3 4 5 6 7 8 9 10 11 12 13 14 15 16 17 18 19 20 21
000
FTUS44 KMEG 190806 AAA
TAFMKL
TAF AMD
KMKL 190806Z 1908/2006 00000KT P6SM OVC035
     FM191400 06005KT P6SM OVC040
     FM200000 03003KT P6SM VCSH OVC050=

USA.gov is the U.S. government's official web portal to all federal, state and local government web resources and services.